Terug naar catalogus

CZ-6A R/B

ActiefCommunicatiePO
NORAD 69091·PAYLOAD·🇨🇳 China

Gelanceerd May 12, 2026 vanaf Taiyuan Satellite Launch Center

Loading…

Volgende Passages (komende 24 uur)

TLE

VersSource: Space-Track

Epoch: Sep 14, 2026, 21:55 UTC

1 69091U 26104U   26257.91368540  .00000204  00000-0  38285-4 0  9992
2 69091  89.0174 330.7998 0093798  35.5149 325.2257 14.57502248 18281

Volg CZ-6A R/B in realtime met AllMySat

Download on the App Store